Regional Weather Roundup
Issued by NWS Portland, ME

Current Version | Previous Version | Text Only | Print | Product List | Glossary On
Versions: 1 2 3 4 5 6 7 8 9 10 11 12 13 14 15 16 17 18 19 20 21 22 23 24 25 26 27 28 29 30 31 32 33 34 35 36 37 38 39 40 41 42 43 44 45 46 47 48 49 50
000
ASUS41 KGYX 201610
RWRGYX
WEATHER ROUNDUP FOR MAINE AND NEW HAMPSHIRE
NATIONAL WEATHER SERVICE GRAY ME
1200 PM EDT SUN AUG 20 2017

MEZ002-005-006-010-012-015-018-020-021-024-026-027-029-201700-
MAINE

CITY           SKY/WX    TMP DP  RH WIND       PRES   REMARKS
PORTLAND       MOSUNNY   81  56  42 NW16      29.91R
SANFORD        SUNNY     80  59  48 W15G21    29.93R
BAR HARBOR     SUNNY     78  65  63 S12       29.87S
WISCASSET      MOSUNNY   81  60  48 VRB7      29.90S
ROCKLAND       MOSUNNY   79  64  60 W10       29.88S
FRYEBURG       SUNNY     78  55  44 W10G22    29.94S
LEWISTONAUBURN CLOUDY    76  59  55 W9        29.92R
AUGUSTA        PTSUNNY   75  59  57 W7G17     29.91R
WATERVILLE     PTSUNNY   77  62  59 W12G18    29.87R
BANGOR         PTSUNNY   78  61  55 NW12G18   29.87R
GREENVILLE       N/A     65  61  87 NW8G17    29.89R
MILLINOCKET    MOSUNNY   74  62  66 W9        29.85R
HOULTON        MOSUNNY   77  63  61 W12G24    29.81R
PRESQUE ISLE   LGT RAIN  70  63  78 SW9       29.80S
FRENCHVILLE    LGT RAIN  63  59  87 NW12G21   29.80R
CARIBOU        PTSUNNY   73  61  65 W10       29.78S
$$

NHZ002-005-008-009-011-012-014-201700-
NEW HAMPSHIRE

CITY           SKY/WX    TMP DP  RH WIND       PRES   REMARKS
PORTSMOUTH     MOSUNNY   81  60  48 W13G21    29.92R
ROCHESTER      MOSUNNY   79  55  43 NW18G28   29.94R
NASHUA         PTSUNNY   79  60  52 NW12G18   29.96S
MANCHESTER     PTSUNNY   79  57  46 NW12      29.94S
CONCORD        MOSUNNY   79  57  46 NW16G25   29.96R
LACONIA        SUNNY     75  55  49 NW9G21    29.97R
PLYMOUTH       FAIR      74  54  49 NW6       29.98R
BERLIN         CLOUDY    70  54  56 NW8G21    29.98R
WHITEFIELD     PTSUNNY   72  56  57 NW12      30.00R
JAFFREY        PTSUNNY   74  59  59 CALM      30.01S
KEENE            N/A    N/A N/A N/A MISG        N/A
LEBANON        MOSUNNY   77  55  46 NW10      30.00R
MT WASHINGTON  FOG       45  45 100 NW51G60     N/A  VSB 0
$$

VTZ005-007-008-201700-
VERMONT

CITY           SKY/WX    TMP DP  RH WIND       PRES   REMARKS
ST JOHNSBURY     N/A     72  57  59 MISG      29.98R
MONTPELIER     PTSUNNY   68  56  65 NW14G26   30.06R
BURLINGTON     MOSUNNY   75  56  51 NW6       30.01S
$$

MAZ007-012-024-CTZ003-RIZ002-NYZ038-NYZ072-201700-
SOUTHERN NEW ENGLAND AND NY

CITY           SKY/WX    TMP DP  RH WIND       PRES   REMARKS
BOSTON         MOSUNNY   82  61  48 NW10G18   29.95R
WORCESTER      PTSUNNY   75  56  51 W14       30.02R
NANTUCKET      SUNNY     79  68  69 SW12      29.96R
PROVIDENCE     MOSUNNY   82  61  48 NW13      29.98R
HARTFORD       MOSUNNY   80  59  48 NW14      30.01S
ALBANY         PTSUNNY   76  59  55 NW13      30.05R
NEW YORK CITY  PTSUNNY   79  59  50 NW14      30.05R
$$

ANZ081-ANZ082-ANZ150-NHZ014-MEZ023>029-201700-
COASTAL MARINE OBSERVATIONS

STATION/POSITION TIME  TEMP    WIND        PRES    WAVE
                       AIR SEA DIR/SP/G            HT/PER
                 (UTC) (F)     (DEG/KT/KT) (MB)    (FT/S)
MOUNT DESERT ROC 1600   57                 1012.2S
MATINICUS ROCK   1500   61     240/  9/ 10 1011.9R
ISLE OF SHOALS   1500   73     290/ 11/ 12 1012.9R
JEFFREYS LEDGE   1506      66                N/A     2/ 7
CASHES LEDGE BUO 1550   74 69              1012.4R   2/ 8
GEORGES BANK BUO 1450   67 64              1013.8    4/ 7
$$

.............KEY..............
   WCI - WIND CHILL
   TC  - TEMPERATURE IN CELSIUS
   VSB - VISIBILITY IN MILES
   HX  - HEAT INDEX
   FAIR- INDICATES FEW OR NO CLOUDS BELOW 12,000 FT, WITH NO
         SIGNIFICANT WEATHER AND/OR OBSTRUCTIONS TO VISIBILITY.






USA.gov is the U.S. government's official web portal to all federal, state and local government web resources and services.